www.pogodaiklimat.ru

Погода и климат >> Архив погоды >> Россия >> Ленинградская область >> Выборг


АРХИВ ПОГОДЫ в Выборге

Время (UTC), дата Ветер
(напр.,м/с)
 
Видим.   Явления Облачность Т
(С)
Тd
(С)
f
(%)
Тe
(С)
Тes
(С)
Комфортность P
(гПа)
Po
(гПа)
Тmin
(С)
Tmax
(С)
R
(мм)
R24
(мм)
S
(см)
00 13.09 З 4 20 км 9/3 600 м
[Cu med, cong Ci fib]
+13.9 +11.9 88 +12 +12 тепло 1011.4 1009.9
03 13.09 З 6
{10}
20 км 9/8 600 м
[Cu med, cong Cc]
+15.4 +12.9 85 +14 +14 тепло 1009.8 1008.3 +13.9
06 13.09 З 7-10
{12}
20 км 9/6 600 м
[Cu med, cong Ac trans]
+15.8 +11.4 75 +14 +14 тепло 1008.8 1007.3 +13.9
09 13.09 ЮЗ 8-11
{12}
10 км слаб. ливневой дождь 10/8 800 м
[Cb cap Ac As]
+14.1 +12.1 88 +12 +12 по сезону 1007.9 1006.4
12 13.09 З 2
{11}
10 км слаб. ливневой дождь 10/8 720 м
[Cb cap Ac As]
+12.6 +11.3 92 +12 +12 по сезону 1007.3 1005.8
15 13.09 З 1 20 км {ливн. осадки} 9/8 1200 м
[Cb cap Ac As]
+13.7 +12.0 89 +14 +14 тепло 1006.7 1005.2 8
18 13.09 СЗ 2 20 км {ливн. осадки} 8/0
[Ac trans Ci fib]
+12.2 +11.1 93 +11 +11 по сезону 1007.0 1005.5 +16.7 8
21 13.09 СЗ 3 20 км ясно +9.8 +8.6 92 +7 +7 по сезону 1008.1 1006.5
00 14.09 З 3 20 км ясно +8.4 +6.7 89 +6 +6 по сезону 1008.9 1007.3
03 14.09 З 3 20 км ясно +7.9 +6.4 90 +5 +5 прохладно 1010.1 1008.5 +7.9
06 14.09 З 4 20 км ясно +9.3 +7.2 87 +6 +7 по сезону 1010.8 1009.2 +7.7
09 14.09 З 4
{10}
20 км 6/6 600 м
[Cu med, cong]
+12.6 +5.6 62 +11 +12 по сезону 1011.7 1010.2
12 14.09 СЗ 4
{11}
20 км 8/8 600 м
[Cu med, cong]
+13.7 +3.8 51 +12 +13 по сезону 1012.2 1010.7
15 14.09 СЗ 4
{13}
20 км 6/6 600 м
[Cu hum]
+13.5 +3.3 50 +12 +12 по сезону 1012.5 1010.9
18 14.09 З 2 10 км ясно +9.5 +4.8 72 +8 +8 по сезону 1013.2 1011.6 +14.9
21 14.09 СЗ 3 20 км ясно +7.6 +5.4 86 +5 +5 прохладно 1013.5 1011.9
00 15.09 З 2 20 км ясно +6.5 +5.1 91 +4 +4 прохладно 1012.6 1010.9
03 15.09 З 2 20 км ясно +7.6 +5.4 86 +6 +6 по сезону 1010.7 1009.1 +5.5
06 15.09 ЮВ 6 20 км 10/8 600 м
[Cb cap As op]
+8.9 +6.8 87 +5 +5 прохладно 1006.0 1004.3 +5.5
09 15.09 Ю 11-12
{15}
4000 м ливневой дождь 10/9 300 м
[Cb cap As op]
+9.7 +8.5 92 +5 +5 прохладно 1000.0 998.4
12 15.09 Ю 10-11
{14}
4000 м ливневой дождь 10/9 330 м
[Cb cap As op]
+11.0 +9.8 92 +7 +7 холодно 993.2 991.7
15 15.09 ЮЗ 12-13
{19}
4000 м ливневой дождь 10/9 270 м
[Cb cap As op]
+13.2 +12.1 93 +10 +10 по сезону 986.1 984.6 29
18 15.09 З 6
{16}
10 км {ливн. осадки} 3/0
[Ac trans]
+9.6 +7.9 89 +6 +6 прохладно 986.6 985.1 +13.3 30
21 15.09 З 6
{11}
20 км 3/0
[Ac trans Ci fib]
+9.4 +7.3 87 +6 +6 по сезону 987.0 985.5
00 16.09 З 6
{10}
20 км 3/0
[Ac trans]
+8.7 +7.0 89 +5 +5 по сезону 986.7 985.2
03 16.09 З 6
{11}
20 км 3/0
[Ac trans]
+8.0 +6.3 89 +4 +4 прохладно 986.2 984.7 +7.9 1
06 16.09 З 6
{10}
20 км 8/4 600 м
[Cu med, cong Ac trans Ci fib]
+8.2 +6.0 86 +4 +4 прохладно 985.8 984.3 +7.7
09 16.09 З 3 20 км {ливн. осадки} 9/8 600 м
[Cb cap Ac trans]
+10.0 +7.3 83 +8 +8 по сезону 986.7 985.2
12 16.09 СЗ 3 4000 м слаб. ливневой дождь 10/9 360 м
[Cb cap Ac As]
+9.6 +8.6 93 +7 +7 прохладно 989.4 987.9
15 16.09 СЗ 2 20 км {ливн. осадки} 10/6 600 м
[Cb cap Ac trans]
+9.8 +6.9 82 +8 +8 по сезону 991.4 989.9 1
18 16.09 С 1 10 км {ливн. осадки} 10/3 600 м
[Cu med, cong Ac trans]
+7.9 +7.0 94 +7 +7 по сезону 992.7 991.2 +10.6 1
21 16.09 СЗ 1 20 км 8/0
[Ac trans Cc]
+6.5 +5.6 94 +5 +5 прохладно 993.4 991.9
00 17.09 СЗ 2 20 км 9/0
[Ac trans]
+5.9 +4.7 92 +3 +3 прохладно 993.6 992.0
03 17.09 СЗ 1 20 км 10/9 480 м
[Cb cap Ac trans]
+6.2 +5.1 93 +5 +5 по сезону 993.6 992.0 +5.8
06 17.09 СЗ 2 20 км 10/10 360 м
[Sc diur, vesp]
+7.0 +5.4 90 +5 +5 по сезону 994.1 992.6 +5.8
09 17.09 СЗ 2 10 км слаб. дождь 10/8 210 м
[Frnb As op]
+8.8 +7.3 90 +7 +7 прохладно 995.4 993.9
12 17.09 СЗ 2 20 км {дождь} 9/6 1140 м
[Cu hum Ac trans Ci fib]
+10.2 +7.9 86 +9 +10 прохладно 996.1 994.6
15 17.09 С 2 20 км в посл. час ливневой дождь 9/8 1200 м
[Cb cap Ac As]
+9.7 +7.6 87 +8 +8 по сезону 996.7 995.1 2
18 17.09 С 2 10 км {ливн. осадки} 9/8 1320 м
[Cb cap Ac trans]
+8.4 +6.7 89 +6 +6 прохладно 997.5 995.9 +11.2 2
21 17.09 С 2 20 км 8/0
[Ac trans]
+7.2 +5.6 90 +5 +5 прохладно 998.1 996.5
00 18.09 С 2 10 км 10/8 1380 м
[Sc Ac trans]
+7.2 +5.4 88 +5 +5 по сезону 998.8 997.2
03 18.09 С 3 20 км 10/0
[Ac trans]
+7.0 +5.2 88 +4 +4 прохладно 999.8 998.2 +6.6
06 18.09 СВ 2 20 км 8/4 1000 м
[Sc Ac trans Ci fib]
+7.4 +4.9 84 +5 +6 по сезону 1001.5 999.9 +6.4
09 18.09 СВ 3 20 км 5/5 600 м
[Cb cap]
+9.8 +4.7 71 +8 +10 по сезону 1003.1 1001.5
12 18.09 СВ 2
{10}
20 км слаб. ливневой дождь 8/8 1000 м
[Cb cap]
+8.9 +5.4 79 +7 +8 прохладно 1004.6 1003.0
15 18.09 С 1 20 км в посл. час ливневой дождь 9/8 1000 м
[Cb cap Ac trans]
+7.9 +4.5 79 +7 +7 прохладно 1006.6 1005.0 0.3
18 18.09 С 2 10 км {ливн. осадки} 9/5 600 м
[Cb cap Ac trans]
+7.1 +2.8 74 +5 +5 прохладно 1008.2 1006.6 +12.1 0.3
21 18.09 С 1 20 км 9/0
[Ac trans]
+5.3 +1.3 75 +4 +4 прохладно 1009.5 1007.9
00 19.09 С 1 20 км 3/0
[Ci fib]
+2.4 +0.8 89 +1 +1 холодно 1010.6 1009.0
03 19.09 С 1 20 км ясно +1.1 +0.3 94 -1 -1 очень
холодно
1011.5 1009.9 +0.8
06 19.09 СЗ 1 20 км 9/0
[As op Ci sp]
+4.3 +2.8 90 +3 +4 прохладно 1012.8 1011.2 +0.8
09 19.09 ЮЗ 1 20 км 9/3 600 м
[Cu med, cong Ci fib]
+9.2 +0.6 55 +9 +12 по сезону 1013.7 1012.1
12 19.09 Ю 3 20 км 9/3 600 м
[Cu med, cong Ci fib]
+10.3 +1.2 53 +9 +11 по сезону 1013.6 1012.0
15 19.09 З 4 20 км 9/3 600 м
[Cu med, cong Ac trans Ci fib]
+10.0 +2.5 60 +8 +8 по сезону 1013.1 1011.5
18 19.09 СЗ 2 10 км 3/1 600 м
[Cu med, cong Ac trans]
+6.6 +2.8 77 +4 +4 прохладно 1013.1 1011.5 +10.6
21 19.09 СЗ 2 10 км 6/5 600 м
[Cu med, cong Ac trans]
+4.4 +3.2 92 +2 +2 холодно 1013.4 1011.8

 

Местоположение метеостанции Выборг (Ленинградская область, Россия): широта 60.72 долгота 28.73 высота над уровнем моря 13 м.

В архиве по умолчанию представлена погода в Выборге за последнюю неделю. Архивные данные за месяц целиком и за предыдущие месяцы, начиная с января 2011 года, Вы можете получить, выбрав интересующий диапазон дат из раскрывающегося списка и нажав кнопку "Ввод!".


*Определитесь, кто Вы:
робот инопланетянин человек

Внимание! Время в таблицах - всемирное. Для получения местного времени необходимо прибавить поправку, которая равна 3 ч.

Смотрите также архив погоды в соседних городах и на ближайших метеорологических станциях:

Погода в Лесогорском (Ленинградская область, Россия) (36 км)
Погода в Лаппеенранте (Финляндия) (47 км)
Погода в Лаппеенранта аэропорту (Финляндия) (47 км)
Погода в Хиеккапакке (Финляндия) (55 км)
Погода в Озерках (Ленинградская область, Россия) (60 км)
Погода в Коивуниеми (Финляндия) (62 км)
Погода в Рощино (Ленинградская область, Россия) (72 км)
Погода в Сосново (Ленинградская область, Россия) (89 км)
Погода в Париккала Коицанлахти (Финляндия) (89 км)
Погода в Пуумале (Финляндия) (94 км)

Пояснения к столбцам:

Ветер - указаны скорость ветра в м/с - средняя за 10 мин, порывы в срок и между сроками (в фигурных скобках) и направление, откуда дует ветер: С - северный, СВ - северо-восточный, В - восточный, ЮВ - юго-восточный, Ю - южный, ЮЗ - юго-западный, З - западный, СЗ - северо-западный.
Видимость - горизонтальная дальность видимости в метрах или километрах. При видимости от 1 до 10 км при отсутствии осадков обычно наблюдается дымка, при ухудшении видимости до 1 км и менее - туман. В сухую погоду видимость может ухудшаться дымом, пылью или мглою.
Явления - указаны атмосферные явления, наблюдавшиеся в срок или в последний час перед сроком; фигурными скобками обозначены явления, наблюдавшиеся между сроками (за 1-3 часа до срока); квадратными скобками обозначены град или гололедные отложения с указанием их диаметра в мм.
Облачность - указаны через наклонную черту общая и нижняя облачность в баллах и высота нижней границы облаков в метрах; квадратными скобками обозначены формы облаков: Ci - перистые, Cs - перисто-слоистые, Cc - перисто-кучевые, Ac - высококучевые, As - высокослоистые, Sc - слоисто-кучевые, Ns - слоисто-дождевые, Cu - кучевые, Cb - кучево-дождевые. Подробнее классификацию облаков см. в Атласе облаков (PDF).
T - Температура воздуха - температура, измеренная на высоте 2 м над землей.
Td - Температура точки росы - температура, при понижении до которой содержащийся в воздухе водяной пар достигнет насыщения.
f - Относительная влажность воздуха - влажноcть воздуха, измеренная на высоте 2 м над землей.
Te - Эффективная температура - температура, которую ощущает одетый по сезону человек в тени. Характеристика душности погоды. При расчете учитывается влияние влажности воздуха и скорости ветра на теплоощущения человека.
Tes - Эффективная температура на солнце - температура, которую ощущает человек, с поправкой на солнечный нагрев. Характеристика знойности погоды. Зависит от высоты солнца над горизонтом, облачности и скорости ветра. Ночью, в пасмурную погоду, а также при ветре 12 м/с и более поправка равна нулю.
P - Атмосферное давление - приведенное к уровню моря атмосферное давление.
Po - Атмосферное давление - измеренное на уровне метеостанции атмосферное давление.
Tmin - Минимальная температура - минимум температуры воздуха на высоте 2 м над землей.
Tmax - Максимальная температура - максимум температуры воздуха на высоте 2 м над землей.
R - Количество осадков - Количество выпавших осадков за период времени, мм. При наведении курсора мыши на число - период времени, за который выпало указанное количество осадков.
R24 - Количество осадков - Количество выпавших осадков за 24 часа, мм.
S - Снежный покров - Высота снежного покрова, см. При наведении курсора мыши на число - состояние снежного покрова и степень покрытия местности в баллах.